• In Russia
  • List of Countries
  • For 7 days
  • Water Temperature
  • Satellite Maps
  • Weather Map
  • Weather Widgets
  • user-avatar
    Login

    Hourly Weather Eisenstadt

    Today, 17 January, Wednesday

    Time Temperature Precipitation Wind Pressure Humidity
    00:00 +1°C° 0 mm 2 mps 709 mmHg 83%
    01:00 +1°C° 0 mm 2 mps 709 mmHg 83%
    02:00 +1°C° 0.2 mm 2 mps 708 mmHg 84%
    03:00 +1°C° 0.2 mm 2 mps 708 mmHg 86%
    04:00 +1°C° 0.2 mm 2 mps 707 mmHg 87%
    05:00 +2°C° 0.2 mm 1 mps 707 mmHg 88%
    06:00 +1°C° 0.2 mm 1 mps 707 mmHg 88%
    07:00 +1°C° 0.2 mm 1 mps 706 mmHg 89%
    08:00 +2°C° 0.3 mm 1 mps 706 mmHg 88%
    09:00 +1°C° 0.3 mm 2 mps 706 mmHg 87%
    10:00 +1°C° 0.3 mm 2 mps 706 mmHg 85%
    11:00 +1°C° 0.2 mm 3 mps 706 mmHg 81%
    12:00 +1°C° 0.2 mm 4 mps 707 mmHg 76%
    13:00 +1°C° 0.2 mm 6 mps 707 mmHg 71%
    14:00 +1°C° 0.1 mm 6 mps 708 mmHg 70%
    15:00 -1°C° 0.1 mm 6 mps 708 mmHg 69%
    16:00 -1°C° 0.1 mm 5 mps 709 mmHg 67%
    17:00 -2°C° 0 mm 6 mps 710 mmHg 67%
    18:00 -3°C° 0 mm 6 mps 711 mmHg 68%
    19:00 -4°C° 0 mm 6 mps 711 mmHg 68%
    20:00 -4°C° 0 mm 6 mps 712 mmHg 69%
    21:00 -4°C° 0 mm 5 mps 713 mmHg 71%
    22:00 -4°C° 0 mm 5 mps 713 mmHg 73%
    23:00 -4°C° 0 mm 5 mps 714 mmHg 72%

    Tomorrow, 18 January, Thursday

    Time Temperature Precipitation Wind Pressure Humidity
    00:00 -4°C° 0 mm 5 mps 714 mmHg 72%
    01:00 -4°C° 0 mm 5 mps 715 mmHg 71%
    02:00 -4°C° 0 mm 5 mps 715 mmHg 72%
    03:00 -4°C° 0 mm 5 mps 716 mmHg 73%
    04:00 -3°C° 0 mm 4 mps 716 mmHg 75%
    05:00 -3°C° 0 mm 4 mps 717 mmHg 76%
    06:00 -3°C° 0 mm 4 mps 717 mmHg 78%
    07:00 -2°C° 0 mm 3 mps 718 mmHg 80%
    08:00 -1°C° 0 mm 3 mps 718 mmHg 75%
    09:00 0°C° 0 mm 3 mps 718 mmHg 71%
    10:00 0°C° 0 mm 3 mps 718 mmHg 66%
    11:00 +1°C° 0.1 mm 3 mps 717 mmHg 65%
    12:00 +1°C° 0.1 mm 3 mps 717 mmHg 64%
    13:00 +1°C° 0.1 mm 4 mps 716 mmHg 63%
    14:00 +1°C° 0.1 mm 4 mps 715 mmHg 65%
    15:00 0°C° 0.1 mm 4 mps 714 mmHg 66%
    16:00 0°C° 0.1 mm 4 mps 714 mmHg 67%
    17:00 0°C° 0 mm 4 mps 713 mmHg 69%
    18:00 -1°C° 0 mm 4 mps 713 mmHg 71%
    19:00 -1°C° 0 mm 4 mps 712 mmHg 72%
    20:00 -1°C° 0 mm 4 mps 712 mmHg 73%
    21:00 -1°C° 0 mm 4 mps 711 mmHg 74%
    22:00 -1°C° 0 mm 4 mps 711 mmHg 74%
    23:00 -1°C° 0.1 mm 4 mps 711 mmHg 76%

    Day after tomorrow, 19 January, Friday

    Time Temperature Precipitation Wind Pressure Humidity
    00:00 0°C° 0.1 mm 3 mps 711 mmHg 77%
    01:00 0°C° 0.1 mm 3 mps 711 mmHg 79%
    02:00 +1°C° 0.3 mm 3 mps 711 mmHg 80%
    03:00 +1°C° 0.3 mm 3 mps 712 mmHg 81%
    04:00 +1°C° 0.3 mm 3 mps 712 mmHg 82%
    05:00 +1°C° 0 mm 3 mps 713 mmHg 81%
    06:00 +1°C° 0 mm 3 mps 713 mmHg 80%
    07:00 -1°C° 0 mm 4 mps 714 mmHg 80%
    08:00 0°C° 0 mm 4 mps 714 mmHg 78%
    09:00 +1°C° 0 mm 3 mps 715 mmHg 77%
    10:00 +2°C° 0 mm 3 mps 716 mmHg 75%
    11:00 +2°C° 0 mm 3 mps 716 mmHg 72%
    12:00 +2°C° 0 mm 3 mps 716 mmHg 70%
    13:00 +3°C° 0 mm 3 mps 716 mmHg 68%
    14:00 +3°C° 0 mm 2 mps 716 mmHg 70%
    15:00 +3°C° 0 mm 2 mps 716 mmHg 72%
    16:00 +3°C° 0 mm 1 mps 716 mmHg 74%
    17:00 +2°C° 0 mm 1 mps 717 mmHg 76%
    18:00 +2°C° 0 mm 1 mps 718 mmHg 78%
    19:00 +2°C° 0 mm 1 mps 718 mmHg 80%
    20:00 +1°C° 0.1 mm 1 mps 718 mmHg 82%
    21:00 +1°C° 0.1 mm 1 mps 718 mmHg 83%
    22:00 +1°C° 0.1 mm 1 mps 718 mmHg 85%
    23:00 +1°C° 0.2 mm 1 mps 718 mmHg 86%

    20 January, Saturday

    Time Temperature Precipitation Wind Pressure Humidity
    00:00 +1°C° 0.2 mm 1 mps 718 mmHg 88%
    01:00 +1°C° 0.2 mm 1 mps 718 mmHg 90%
    02:00 +1°C° 0.2 mm 1 mps 718 mmHg 90%
    03:00 +1°C° 0.2 mm 1 mps 718 mmHg 91%
    04:00 +1°C° 0.2 mm 1 mps 717 mmHg 92%
    05:00 0°C° 0.1 mm 1 mps 717 mmHg 91%
    06:00 0°C° 0.1 mm 1 mps 717 mmHg 91%
    07:00 0°C° 0.1 mm 1 mps 716 mmHg 90%
    08:00 0°C° 0.1 mm 1 mps 717 mmHg 88%
    09:00 +1°C° 0.1 mm 1 mps 717 mmHg 85%
    10:00 +1°C° 0.1 mm 2 mps 717 mmHg 82%
    11:00 +1°C° 0.2 mm 2 mps 717 mmHg 80%
    12:00 +2°C° 0.2 mm 2 mps 717 mmHg 77%
    13:00 +2°C° 0.2 mm 2 mps 717 mmHg 75%
    14:00 +1°C° 0.1 mm 2 mps 717 mmHg 76%
    15:00 +1°C° 0.1 mm 2 mps 717 mmHg 78%
    16:00 +1°C° 0.1 mm 1 mps 717 mmHg 79%
    17:00 -2°C° 0.1 mm 2 mps 717 mmHg 80%
    18:00 -3°C° 0.1 mm 2 mps 717 mmHg 81%
    19:00 -4°C° 0.1 mm 2 mps 718 mmHg 82%
    20:00 -4°C° 0 mm 2 mps 718 mmHg 82%
    21:00 -4°C° 0 mm 2 mps 718 mmHg 82%
    22:00 -4°C° 0 mm 2 mps 719 mmHg 82%
    23:00 -5°C° 0 mm 2 mps 719 mmHg 82%

    21 January, Sunday

    Time Temperature Precipitation Wind Pressure Humidity
    00:00 -5°C° 0 mm 2 mps 719 mmHg 81%
    01:00 -5°C° 0 mm 2 mps 719 mmHg 81%
    02:00 -5°C° 0 mm 2 mps 719 mmHg 81%
    03:00 -5°C° 0 mm 2 mps 720 mmHg 81%
    04:00 -5°C° 0 mm 2 mps 720 mmHg 81%
    05:00 -5°C° 0 mm 2 mps 720 mmHg 80%
    06:00 -5°C° 0 mm 2 mps 721 mmHg 80%
    07:00 -5°C° 0 mm 2 mps 721 mmHg 80%
    08:00 -5°C° 0 mm 3 mps 722 mmHg 77%
    09:00 -4°C° 0 mm 3 mps 722 mmHg 73%
    10:00 -2°C° 0 mm 3 mps 723 mmHg 70%
    11:00 -1°C° 0 mm 3 mps 723 mmHg 67%
    12:00 -1°C° 0 mm 4 mps 723 mmHg 65%
    13:00 -1°C° 0 mm 4 mps 723 mmHg 63%
    14:00 0°C° 0 mm 3 mps 723 mmHg 66%
    15:00 -1°C° 0 mm 3 mps 723 mmHg 69%
    16:00 -2°C° 0 mm 2 mps 724 mmHg 72%
    17:00 -2°C° 0 mm 2 mps 724 mmHg 74%
    18:00 -3°C° 0 mm 2 mps 724 mmHg 76%
    19:00 -4°C° 0 mm 2 mps 725 mmHg 79%
    20:00 -4°C° 0 mm 2 mps 725 mmHg 79%
    21:00 -4°C° 0 mm 2 mps 725 mmHg 79%
    22:00 -5°C° 0 mm 2 mps 725 mmHg 79%
    23:00 -5°C° 0 mm 2 mps 725 mmHg 78%

    22 January, Monday

    Time Temperature Precipitation Wind Pressure Humidity
    00:00 -2°C° 0 mm 1 mps 725 mmHg 78%
    01:00 -2°C° 0 mm 1 mps 724 mmHg 77%
    02:00 -2°C° 0 mm 1 mps 724 mmHg 77%
    03:00 -2°C° 0 mm 1 mps 724 mmHg 76%
    04:00 -2°C° 0 mm 1 mps 724 mmHg 76%
    05:00 -2°C° 0 mm 1 mps 724 mmHg 76%
    06:00 -2°C° 0 mm 1 mps 724 mmHg 77%
    07:00 -4°C° 0 mm 2 mps 724 mmHg 77%
    08:00 -3°C° 0 mm 2 mps 723 mmHg 75%
    09:00 -3°C° 0 mm 2 mps 723 mmHg 73%
    10:00 -2°C° 0 mm 3 mps 723 mmHg 71%
    11:00 -1°C° 0.1 mm 3 mps 723 mmHg 71%
    12:00 -1°C° 0.1 mm 3 mps 723 mmHg 70%
    13:00 0°C° 0.1 mm 3 mps 722 mmHg 70%
    14:00 -1°C° 0.2 mm 3 mps 722 mmHg 73%
    15:00 -1°C° 0.2 mm 3 mps 722 mmHg 75%
    16:00 -1°C° 0.2 mm 2 mps 722 mmHg 78%
    17:00 -1°C° 0.2 mm 2 mps 722 mmHg 80%
    18:00 -2°C° 0.2 mm 2 mps 723 mmHg 82%
    19:00 -2°C° 0.2 mm 2 mps 723 mmHg 84%
    20:00 -2°C° 0.2 mm 2 mps 723 mmHg 85%
    21:00 -2°C° 0.2 mm 2 mps 723 mmHg 86%
    22:00 -2°C° 0.2 mm 2 mps 724 mmHg 87%
    23:00 -2°C° 0.2 mm 2 mps 724 mmHg 88%
    Show more